Other Public Products
Issued by NWS Grand Forks, ND

Home | Current Version | Previous Version | Graphics & Text | Print | Product List | Glossary On
Versions: 1 2 3 4 5 6 7 8 9 10 11 12 13 14 15 16 17 18 19 20 21 22 23 24 25 26 27 28 29 30 31 32 33 34 35 36 37 38 39 40 41 42 43 44 45 46 47 48 49 50
000
FPUS83 KFGF 022010
OPUFGF
PRAIRIE TO PINES WEATHER ROUNDUP
NATIONAL WEATHER SERVICE EASTERN NORTH DAKOTA/GRAND FORKS ND
200 PM CST FRI DEC 02 2016

 **SATELLITE DATA USED TO AUGMENT SKY COVER AT AUTOMATED STATIONS**
 *****  WEATHER ACROSS EASTERN NORTH DAKOTA  *****

CITY           SKY/WX    TMP DP  RH WIND       PRES   REMARKS
GRAND FORKS    CLOUDY    32  21  64 NW6       30.26R
GRAND FORKS AF CLOUDY    31  21  65 N5        30.25S
GRAND CITY NWS   N/A     32 N/A N/A N14         N/A  WCI  22
BUXTON         NOT AVBL
DEVILS LAKE    CLOUDY    30  20  66 W6        30.23S WCI  24
FARGO          CLOUDY    31  21  66 N8        30.26F WCI  23
WAHPETON ARPT  CLOUDY    28  21  74 NW10      30.28R WCI  19
$$

 *****  WEATHER ACROSS CENTRAL AND WESTERN NORTH DAKOTA  *****

CITY           SKY/WX    TMP DP  RH WIND       PRES   REMARKS
JAMESTOWN      CLOUDY    28  20  71 N7        30.24S WCI  21
BISMARCK       CLOUDY    26  19  74 SE6       30.24F WCI  19
MINOT          CLOUDY    29  24  82 S10       30.18F WCI  20
MINOT AFB      CLOUDY    29  25  85 SW10      30.17F WCI  19
GARRISON         N/A     27  23  85 S10       30.19F WCI  17
WILLISTON      CLOUDY    30  24  78 SW8       30.16F WCI  22
DICKINSON      CLOUDY    27  23  85 W6        30.14F WCI  20
HETTINGER      MOSUNNY   31  25  78 W7        30.18S WCI  24
$$

 *****  OTHER OBSERVATIONS NORTHEAST NORTH DAKOTA  *****

CITY           SKY/WX    TMP DP  RH WIND       PRES   REMARKS
WALHALLA         N/A     28  28 100 S5        30.24S WCI  23
LANGDON        CLOUDY    30  23  74 W6        30.21S WCI  24
CAVALIER         N/A     32  25  74 CALM      30.25S
GRAFTON        CLOUDY    32  27  80 N6        30.27S
CANDO          CLOUDY    30  25  80 W8        30.24F WCI  23
FORT TOTTEN      N/A     31  20  64 W3        29.95S
ROLLA          CLOUDY    27  23  86 W9        30.20S WCI  17
RUGBY            N/A     27  23  86 SW13      30.22S WCI  16
 ***** THE ABOVE OBSERVATIONS ARE NON NWS ARE NOT QUALITY
        CONTROLLED AND MAY MIS-REPORT RAIN FOR SNOW...
$$

 *****  OTHER OBSERVATIONS SOUTHEAST NORTH DAKOTA *****

CITY           SKY/WX    TMP DP  RH WIND       PRES   REMARKS
COOPERSTOWN    CLOUDY    28  21  74 NW7       30.25R WCI  21
VALLEY CITY    CLOUDY    27  23  86 NW5       30.27S WCI  21
OAKES          NOT AVBL
GWINNER        CLOUDY    28  23  80 NW7       30.27S WCI  21
SHEYENNE NWR     N/A     28  20  73 NW6       29.95S WCI  22
BUFFALO        NOT AVBL
WYNDMERE       NOT AVBL
 ***** THE ABOVE OBSERVATIONS ARE NON NWS ARE NOT QUALITY
       CONTROLLED AND MAY MIS-REPORT RAIN FOR SNOW...
$$

  *****  WEATHER ACROSS NORTHERN MINNESOTA  *****

CITY           SKY/WX    TMP DP  RH WIND       PRES   REMARKS
FLAG ISLAND    CLOUDY    21  19  93 NW8       30.22S WCI  12
WARROAD        CLOUDY    25  21  86 SW5       30.23S WCI  19
ROSEAU         CLOUDY    27  21  80 W6        30.23S WCI  20
HALLOCK        CLOUDY    30  25  80 NW3       30.25S
THF RVR FALLS  CLOUDY    27  22  81 W10       30.25S WCI  17
HALSTAD          N/A     30  21  70 N8          N/A  WCI  22
FOSSTON        CLOUDY    25  19  80 W10       30.24R WCI  15
BAUDETTE       CLOUDY    25  20  81 NW3       30.22R
WASKISH        CLOUDY    25  21  86 NW5       30.22S WCI  19
CROOKSTON      CLOUDY    30  23  74 N8        30.27R WCI  23
$$
  *****  WEATHER ACROSS CENTRAL AND WEST MINNESOTA  *****

CITY           SKY/WX    TMP DP  RH WIND       PRES   REMARKS
BEMIDJI        CLOUDY    24  21  89 NW8       30.22R WCI  15
PARK RAPIDS    CLOUDY    26  20  77 W7        30.21S WCI  18
WADENA         CLOUDY    25  21  86 NW8       30.22S WCI  16
DETROIT LAKES  CLOUDY    27  21  80 N5        30.24S WCI  21
MOORHEAD       CLOUDY    28  21  74 NW8G16    30.27S WCI  20
FERGUS FALLS   CLOUDY    27  19  74 N9        30.30R WCI  17
ELBOW LAKE     CLOUDY    26  21  80 NW7       30.26S WCI  19
MORRIS MN      CLOUDY    28  21  74 N9        30.25S WCI  20
STAPLES        CLOUDY    25  21  86 NW8       30.22S WCI  16
WHEATON        NOT AVBL
$$
  *****  WEATHER ELSEWHERE ACROSS MINNESOTA  *****

CITY           SKY/WX    TMP DP  RH WIND       PRES   REMARKS
DULUTH         CLOUDY    28  22  78 NW9       30.18R WCI  19
INTRNTL FALLS  CLOUDY    25  23  92 W9        30.20R WCI  15
ELY            CLOUDY    25  23  93 W6        30.17R WCI  18
CLOQUET        CLOUDY    28  21  74 NW8       30.19R WCI  20
BRAINERD       CLOUDY    27  21  78 NW7       30.22S WCI  19
HIBBING        CLOUDY    26  23  88 NW5       30.19R WCI  20
ALEXANDRIA     CLOUDY    27  22  81 W7        30.24R WCI  19
SAINT CLOUD    CLOUDY    30  24  78 NW9       30.24R WCI  22
MINNEAPOLIS    CLOUDY    33  22  63 NW7       30.24R
$$

  *****  WEATHER ACROSS SOUTH DAKOTA  *****

CITY           SKY/WX    TMP DP  RH WIND       PRES   REMARKS
SIOUX FALLS    CLOUDY    33  25  72 W10       30.26R WCI  25
BROOKINGS      CLOUDY    28  23  80 NW9       30.24R WCI  20
WATERTOWN      CLOUDY    25  20  81 N8        30.23S WCI  16
HURON          CLOUDY    32  24  72 N5        30.28S
SISSETON         N/A     28  21  75 N10       30.26S WCI  19
ABERDEEN       FLURRIES  29  22  75 NW8       30.27S WCI  21
MITCHELL       CLOUDY    32  26  78 NW7       30.30R
PIERRE         CLOUDY    30  27  88 S6        30.24F WCI  24
MOBRIDGE       CLOUDY    30  23  75 E6        30.22F WCI  24
RAPID CITY     CLOUDY    38  25  59 N13       30.18F
$$

  *****  SOME WEATHER IN NEARBY STATES *****

CITY           SKY/WX    TMP DP  RH WIND       PRES   REMARKS
GLASGOW MT     MOSUNNY   36  26  67 W8G17     30.10F
GREAT FALLS MT SUNNY     33  22  63 SW18      30.06F WCI  22
CHEYENNE WY    CLOUDY    29  19  66 E7        30.13F WCI  22
SCOTTSBLUFF NE SUNNY     40  23  50 W6        30.20F
OMAHA NE       PTSUNNY   40  30  67 N7        30.29F
DES MOINES IA  CLOUDY    41  31  67 W6        30.28R
DAVENPORT IA   CLOUDY    38  28  67 NW14      30.24R
CHICAGO IL     CLOUDY    38  27  64 NW12      30.19R
EAU CLAIRE WI  CLOUDY    32  24  72 NW8       30.21S WCI  25
LA CROSSE WI   CLOUDY    34  22  61 NW7       30.24R
$$

  *****  SOME NATIONAL WEATHER *****

CITY           SKY/WX    TMP DP  RH WIND       PRES   REMARKS
LA GUARDIA NY  PTSUNNY   52  28  39 W20G30    29.86R
RALEIGH NC     SUNNY     73  28  18 W9        30.09S
ATLANTA GA     MOSUNNY   60  26  27 N14       30.20F
NEW ORLEANS LA CLOUDY    64  42  44 E15G22    30.15F
OKLAHOMA CITY  PTSUNNY   54  31  41 E6        30.14F
ALBUQUERQUE NM CLOUDY    48  17  29 E21       29.96F
SALT LAKE CITY MOSUNNY   35  22  58 NW10      30.23F
LOS ANGELES CA SUNNY     65  13  13 N13G25    30.01F
BOISE ID       SUNNY     36  23  59 W6        30.38F
SEATTLE WA     CLOUDY    46  43  89 SE13      30.20F
$$

*** WEATHER ACROSS MANITOBA...SASKATCHEWAN AND ONTARIO ***
                ***ONTARIO***

CITY           SKY/WX    TMP DP  RH WIND       PRES   REMARKS
GERALDTON      FLURRIES  25  23  93 NW8       30.08R WCI  16
THUNDER BAY    PTSUNNY   34  25  69 NW6       30.15R
SIOUX LOOKOUT  FLURRIES  23  21  93 NW3       30.17S
TORONTO        PTSUNNY   39  32  75 W17G32    29.86R
BIG TROUT LK   CLOUDY    21  19  93 NW7       30.21R WCI  13
PICKLE LAKE    FLURRIES  19  18  93 VRB3      30.16R
DRYDEN         CLOUDY    21  19  93 W8        30.17S WCI  12
KENORA         FLURRIES  19  18  93 W6        30.20R WCI  11
$$
                *** MANITOBA***

CITY           SKY/WX    TMP DP  RH WIND       PRES   REMARKS
BRANDON        FLURRIES  28  25  86 SW6       30.20S WCI  22
DAUPHIN        CLOUDY    28  27  93 S2        30.19S
ISLAND LAKE    FLURRIES  16  14  93 S3        30.25R
PILOT MOUND    NOT AVBL
THE PAS        FLURRIES  25  23  93 SE6       30.17S WCI  18
THOMPSON       LGT SNOW  18  14  86 S3        30.21F
WINNIPEG       CLOUDY    27  21  80 W2        30.25S
LYNN LAKE      CLOUDY    16  16 100 S5        30.12R WCI   9
CHURCHILL      CRYSTALS  10   9  92 SW5       30.22S WCI   2
GILLAM         LGT SNOW  12  10  92 SW5       30.25S FOG     WCI   4
$$
                ***SASKATCHEWAN***

CITY           SKY/WX    TMP DP  RH WIND       PRES   REMARKS
ESTEVAN        FLURRIES  28  27  93 S5        30.14F WCI  23
KINDERSLEY     CLOUDY    23  21  93 S12       29.98F WCI  12
LLOYDMINSTER   CLOUDY    25  23  93 S10       29.93F FOG     WCI  15
PRINCE ALBERT  CLOUDY    27  25  93 SE6       30.07F WCI  20
REGINA         CLOUDY    27  23  86 SW7       30.10F WCI  19
YORKTON        CLOUDY    30  27  86 S7        30.13S WCC1F1C2F2C3F3C4F4C5F5C6F6C7F7C8F8C9F9CaFaCbFbCcFcCdFdCe!



USA.gov is the U.S. government's official web portal to all federal, state and local government web resources and services.